Regional Weather Roundup
Issued by NWS

Home | Current Version | Previous Version | Graphics & Text | Print | Product List | Glossary Off
Versions: 1 2 3 4 5 6 7 8 9 10 11 12 13 14 15 16 17 18 19 20 21 22 23 24 25 26 27 28 29 30 31 32 33 34 35 36 37 38 39 40 41 42 43 44 45 46 47 48 49 50

000
ASUS43 KLMK 250010
RWRKY
KENTUCKY REGIONAL WEATHER ROUNDUP
NATIONAL WEATHER SERVICE LOUISVILLE KY
800 PM EDT SUN MAY 24 2015

NOTE "FAIR" INDICATES FEW OR NO CLOUDS BELOW 12,000 FEET
WITH NO SIGNIFICANT WEATHER AND/OR OBSTRUCTIONS TO VISIBILITY.

KYZ001>023-026-027-061>063-070>075-250100-
WESTERN AND SOUTH CENTRAL KENTUCKY

CITY           SKY/WX    TMP DP  RH WIND       PRES   REMARKS
PADUCAH        CLOUDY    81  66  60 SE10      29.98S
HENDERSON      PTSUNNY   81  63  54 S10G30    30.01S
OWENSBORO      MOCLDY    82  65  56 S14       30.04S
HOPKINSVILLE   MOCLDY    82  66  58 SE15      30.04F
BOWLING GREEN  CLEAR     80  62  54 SE12G18   30.09S
GLASGOW        PTCLDY    80  58  48 S8        30.11S
$$

KYZ024-025-028>034-038-045-046-053-250100-
NORTH CENTRAL KENTUCKY

CITY           SKY/WX    TMP DP  RH WIND       PRES   REMARKS
LOUISVILLE/SDF PTCLDY    82  57  42 S17       30.08S
LOUISVILLE/LOU PTCLDY    82  57  42 SE9G17    30.10S
FORT KNOX      CLEAR     80  60  50 SE14      30.08S
$$

KYZ035>037-039>044-047>052-055>060-089>105-250100-
NORTHEAST KENTUCKY

CITY           SKY/WX    TMP DP  RH WIND       PRES   REMARKS
LEXINGTON      CLEAR     79  53  40 S9        30.15S
COVINGTON      PTCLDY    78  53  41 S13       30.12S
FRANKFORT      PTCLDY    80  53  39 SE10      30.12S
$$

KYZ054-064>069-076>088-106>120-250100-
SOUTHEAST KENTUCKY

CITY           SKY/WX    TMP DP  RH WIND       PRES   REMARKS
JACKSON        CLEAR     78  49  35 CALM      30.20S
LONDON         CLEAR     80  47  31 S8        30.19S
SOMERSET       CLEAR     77  52  41 S5        30.18S
MIDDLESBORO    CLEAR     78  55  45 CALM      30.21S
MONTICELLO     CLEAR     78  58  50 S10       30.20R
$$



USA.gov is the U.S. government's official web portal to all federal, state and local government web resources and services.